Wind_Speed
10 15 10 1 4 2 6 6 10 11 7 8 7 11 17 13 7 5 7 2 3 9 10 12 10 11 12 13 15 18 19 21 21 21 22 21 20 20 20 19 18 17 17 18 21 22 23 23 22
12 13 4 3 2 2 6 7 10 9 17 17 17 12 11 13 14 12 4 3 3 9 9 10 11 15 15 16 18 20 21 21 21 21 22 22 22 23 24 24 23 21 21 22 22 23 23 23 25
12 6 3 2 2 6 7 7 14 19 14 4 7 10 7 4 5 8 6 4 4 8 8 9 11 15 18 21 23 24 23 22 21 21 22 22 22 22 22 23 22 22 22 22 23 24 25 25 24
4 2 3 5 9 7 10 16 17 15 10 6 12 11 9 3 4 7 7 5 2 2 7 9 13 17 20 22 23 23 22 22 23 23 22 22 21 21 20 21 21 22 23 23 25 24 23 23 23
2 3 3 8 11 11 14 15 8 7 7 10 6 9 7 7 10 11 7 4 1 3 6 11 15 19 21 20 20 21 22 23 24 24 25 24 25 25 25 23 22 22 22 22 23 24 24 24 22
5 4 3 6 11 12 11 8 5 5 9 11 13 12 7 13 10 8 6 4 0 5 9 11 14 17 19 20 21 22 24 24 25 25 25 24 24 24 24 24 23 24 24 22 22 23 25 26 24
2 1 3 12 15 11 9 8 7 12 12 9 14 9 12 13 11 10 6 3 3 6 9 11 12 17 20 20 21 23 24 25 25 25 25 25 25 24 24 24 25 25 26 26 27 26 24 24 24
4 2 10 6 14 8 14 11 13 10 8 15 11 6 12 18 13 10 6 3 4 8 10 12 13 14 17 21 22 23 23 25 27 28 28 28 27 26 25 25 25 25 25 25 24 25 25 22 21
3 5 7 9 15 12 21 12 7 7 14 5 2 11 20 21 15 10 7 6 6 9 11 14 14 16 16 18 21 23 26 28 28 29 29 27 25 25 24 24 24 23 23 23 22 23 22 21 20
3 4 5 7 9 18 22 15 15 10 13 9 16 21 23 19 13 9 6 4 6 8 11 13 15 16 16 16 20 22 24 25 27 28 28 27 27 26 25 23 23 23 24 23 23 24 22 19 16
4 2 9 7 6 22 19 15 10 15 9 17 29 27 22 17 13 9 7 6 7 9 11 13 17 18 17 17 20 19 19 23 24 28 29 26 24 24 21 19 19 19 21 19 21 20 18 19 17
8 6 7 13 15 17 17 15 15 3 8 19 24 24 21 17 12 9 7 7 7 8 11 14 16 18 20 18 18 18 20 22 21 23 27 26 22 22 20 18 19 19 19 21 21 20 21 20 18
14 11 12 12 13 14 14 13 9 10 17 23 23 21 19 15 13 10 7 6 6 8 12 14 16 18 19 18 17 18 19 19 19 20 25 25 19 20 19 18 18 18 18 20 20 21 20 18 18
12 16 16 13 14 12 13 10 7 11 20 23 22 20 18 16 13 10 8 7 6 8 11 14 16 17 17 17 18 16 17 17 17 18 22 22 20 19 18 17 18 19 18 20 20 21 20 19 18
23 16 13 11 10 5 12 9 9 22 23 22 21 19 17 15 12 10 9 7 5 7 10 14 14 16 17 17 15 13 16 16 16 16 18 21 20 19 17 16 18 20 19 19 20 21 20 19 18
9 9 9 9 11 7 8 3 12 25 27 24 22 20 17 14 12 10 9 6 4 5 10 13 13 14 17 18 15 12 15 14 14 15 16 19 19 20 16 17 18 21 18 19 20 21 21 20 21
7 7 9 11 15 7 13 0 12 24 26 24 23 21 18 15 12 10 8 6 5 4 9 11 12 15 16 16 12 13 14 13 14 14 15 17 17 19 17 17 19 20 18 18 20 20 21 21 22
11 9 11 12 16 15 14 16 10 23 26 25 24 22 20 17 14 12 9 6 4 4 10 10 11 15 15 12 11 11 12 13 13 13 14 16 15 18 18 17 19 19 18 18 20 20 20 19 22
3 8 9 10 7 14 18 16 14 21 25 25 25 24 22 19 16 13 10 6 2 4 8 8 10 14 14 12 13 12 13 13 13 13 14 14 15 16 17 18 19 20 19 18 20 20 20 19 20
7 7 6 3 5 13 10 18 15 21 28 27 26 25 24 21 18 15 11 7 4 2 6 7 9 13 14 11 12 13 12 12 12 13 13 13 15 16 17 18 18 20 19 19 19 19 20 17 18
7 8 4 6 7 11 6 16 17 15 23 24 24 24 24 24 21 17 13 9 5 2 4 5 9 12 13 14 12 13 11 11 12 13 12 13 15 16 17 18 18 19 18 18 19 18 18 18 16
12 5 5 8 9 5 8 6 7 8 13 20 24 24 25 25 21 18 15 10 7 2 3 6 10 11 11 14 12 13 13 13 13 12 13 12 14 15 16 17 18 18 17 18 18 17 19 18 16
1 4 4 7 7 5 9 7 2 3 9 14 21 23 25 24 22 20 16 12 8 3 2 6 9 9 11 10 13 12 12 12 12 12 13 13 14 14 15 16 17 18 18 18 19 19 20 17 17
14 8 6 4 5 8 5 8 3 3 2 2 11 19 22 24 23 19 16 12 8 5 3 5 7 8 9 11 13 13 12 12 12 13 13 14 14 14 15 17 18 18 18 19 19 19 19 18 16
7 8 5 6 5 4 4 6 8 3 1 2 2 12 20 24 24 21 17 13 9 5 3 4 6 6 8 11 12 13 12 11 11 13 13 14 14 14 15 17 18 19 19 18 19 20 20 17 17
15 9 6 7 5 1 3 7 1 5 1 2 3 10 19 23 23 20 17 13 9 6 3 3 4 5 7 10 11 11 12 11 11 12 13 13 13 14 16 17 18 19 18 19 19 18 21 19 18
6 8 4 5 1 5 7 5 6 3 3 5 8 13 19 22 22 20 17 13 10 7 2 2 3 4 7 9 11 11 11 11 12 12 13 13 13 14 16 16 18 19 18 19 20 18 18 20 19
5 9 4 5 5 7 4 7 3 7 8 8 10 13 17 20 21 20 16 13 10 7 3 2 2 4 7 10 11 10 11 12 12 12 13 14 14 15 16 17 18 19 18 19 21 20 18 21 18
6 9 5 4 4 6 7 3 3 6 4 7 10 13 19 22 22 20 16 13 10 8 4 2 1 4 7 9 10 10 11 12 12 13 14 14 15 16 17 18 18 18 19 19 20 21 21 21 18
10 12 14 7 7 3 4 5 5 3 3 3 11 15 18 21 21 19 16 13 10 8 4 2 1 4 8 9 9 9 11 12 13 13 14 15 15 16 17 17 18 18 18 19 23 23 22 19 18
Wind_Direction
132 138 129 163 200 83 109 103 114 132 87 61 68 78 81 48 3 93 110 87 44 50 43 33 5 356 357 353 350 346 344 344 343 340 335 333 330 323 320 317 316 312 303 299 293 291 284 277 272
131 138 143 226 273 270 98 131 141 101 122 104 86 103 74 70 65 109 164 146 74 53 40 36 349 342 347 348 346 346 346 346 345 343 342 341 340 334 334 328 324 316 304 296 293 291 288 285 284
141 124 272 27 0 43 116 134 112 123 126 141 110 78 79 35 43 121 120 120 80 53 31 14 340 343 348 350 349 348 349 349 346 346 346 346 345 341 340 334 333 328 325 318 304 296 292 286 281
130 140 95 56 86 67 114 121 123 125 109 104 118 87 86 63 122 145 142 99 79 31 25 355 345 348 348 348 348 348 349 348 348 348 348 344 344 339 335 331 327 323 321 318 317 316 308 299 291
157 209 118 96 86 118 115 129 148 124 117 126 139 115 90 121 141 125 125 131 240 354 5 358 351 350 350 350 352 351 348 349 348 346 346 345 342 338 335 333 330 322 317 312 311 307 306 303 299
207 246 184 122 123 131 127 140 134 126 131 125 118 118 105 134 132 132 148 175 3 12 10 7 359 351 353 355 354 350 350 349 347 347 346 344 342 341 337 334 334 329 327 322 313 307 301 298 295
248 306 82 129 140 158 150 154 155 135 134 133 140 112 139 152 150 146 157 152 34 20 18 15 8 358 355 356 352 350 348 347 347 346 348 350 348 347 347 341 337 333 330 328 325 320 314 305 299
119 91 151 155 166 143 145 133 133 139 93 135 129 156 167 166 154 142 125 86 46 34 24 16 11 6 1 354 352 349 348 348 349 351 354 353 354 353 348 345 339 335 332 327 322 320 321 322 316
139 200 174 166 174 142 152 145 137 134 140 139 148 153 153 156 151 141 119 89 56 31 23 18 13 7 0 353 349 352 352 353 354 355 354 357 354 351 347 341 338 334 329 326 323 322 325 325 327
272 249 133 138 112 153 162 154 145 146 142 119 125 131 143 150 153 152 139 101 63 40 28 15 12 6 5 359 357 355 355 355 354 355 356 354 353 349 347 344 341 341 341 343 341 338 342 340 335
27 34 129 130 143 150 152 143 146 144 156 156 150 148 152 155 155 148 127 100 70 47 24 18 11 8 6 359 1 357 356 354 354 353 356 353 352 351 352 351 349 349 345 346 345 344 340 335 335
114 86 112 127 135 144 151 141 143 119 128 153 153 154 156 159 157 149 130 98 72 45 32 19 10 5 4 5 358 355 353 357 356 354 354 355 357 358 356 353 353 353 350 348 349 345 340 337 332
103 108 111 128 136 134 141 144 134 114 138 149 154 157 160 161 158 144 128 102 78 49 24 13 7 5 5 2 359 355 358 355 358 355 355 1 2 358 357 355 355 353 350 351 349 345 343 340 334
123 117 121 136 131 139 142 144 155 145 149 155 161 164 166 166 161 146 127 109 83 47 16 10 5 5 7 2 359 2 358 358 358 358 358 2 4 358 358 357 357 354 354 351 350 347 345 342 336
121 115 123 141 148 142 151 181 205 164 166 169 171 171 170 170 160 153 139 119 80 34 12 9 7 8 11 5 5 2 358 0 359 359 357 1 2 1 1 357 357 355 352 353 352 350 349 344 340
130 152 164 172 179 157 203 153 161 170 173 181 180 179 177 173 169 156 144 127 84 38 11 11 16 12 6 2 0 3 359 4 1 1 359 359 0 3 1 359 357 357 356 353 354 352 350 349 347
199 190 211 175 202 168 215 80 166 180 186 188 189 188 185 177 172 164 150 134 104 34 13 19 16 10 7 357 3 1 359 0 1 360 358 359 359 3 5 358 357 0 357 354 354 354 352 350 346
188 200 199 199 193 209 209 243 174 190 195 197 197 195 193 187 183 174 161 143 115 24 17 19 15 7 5 8 4 356 354 357 358 358 359 360 359 2 4 360 357 360 355 355 355 354 352 352 344
228 214 199 199 162 202 228 245 195 201 207 205 204 201 200 194 185 178 171 165 142 27 20 24 11 3 9 10 4 0 356 350 353 356 355 1 359 0 1 1 357 359 355 356 354 352 350 355 353
196 196 198 130 178 212 237 255 246 203 214 213 209 206 204 194 188 183 178 168 157 32 23 26 14 4 11 7 4 359 352 351 354 349 352 353 358 359 359 359 357 356 355 354 352 351 348 354 359
206 232 199 300 165 212 284 263 245 215 221 221 220 216 210 203 195 187 181 176 161 103 34 30 13 8 8 15 0 360 355 354 346 348 347 348 355 356 355 357 356 356 356 352 350 346 347 346 355
241 203 223 174 190 280 199 289 249 233 211 218 218 213 210 204 199 188 181 175 167 164 42 27 11 14 6 8 5 3 1 353 342 344 340 350 349 353 355 356 356 355 354 351 348 340 343 346 341
288 144 170 194 230 267 193 260 236 143 228 226 214 214 210 204 198 186 180 176 165 142 94 21 14 16 10 8 6 6 360 350 343 343 346 346 347 349 352 356 354 353 352 350 344 345 345 340 336
139 130 131 186 241 254 288 242 261 190 108 103 209 206 204 199 195 185 177 167 161 142 75 32 24 13 9 8 4 3 358 350 347 345 349 348 346 347 347 354 352 350 349 348 344 342 341 329 330
199 196 251 229 211 280 150 221 281 140 89 332 200 192 193 191 189 182 176 169 162 145 98 41 26 16 8 5 4 1 356 351 348 348 345 348 345 347 345 350 348 346 346 344 341 342 338 332 325
207 235 251 276 259 304 178 241 102 108 48 328 205 178 179 182 185 183 176 169 162 145 116 42 39 16 7 5 4 1 359 352 348 344 347 344 345 343 346 344 343 344 346 340 341 341 340 334 329
172 220 343 272 214 263 251 228 157 171 135 122 140 159 172 178 180 178 173 167 160 148 135 74 45 12 6 6 3 359 355 351 346 347 347 342 344 344 344 343 341 345 347 338 339 338 337 332 329
258 133 191 216 263 261 203 265 287 164 164 159 164 167 170 175 175 174 171 164 156 150 143 35 51 13 10 6 1 356 351 350 347 346 345 345 346 343 346 345 346 348 347 341 339 338 330 331 328
174 207 223 282 270 276 286 277 87 127 143 173 168 171 174 175 173 173 169 159 155 151 146 130 54 19 11 4 0 356 353 352 350 350 348 347 347 346 346 348 351 350 347 343 342 340 332 330 327
262 245 213 236 213 236 301 287 144 123 92 151 163 172 173 172 172 169 164 159 158 157 152 160 59 22 6 3 2 357 357 356 356 355 350 349 348 348 348 350 352 352 347 345 345 341 334 332 330
Height
1517 1518 1519 1520 1516 1516 1533 1543 1542 1551 1560 1565 1564 1564 1572 1575 1577 1584 1591 1591 1590 1590 1589 1584 1580 1578 1575 1571 1568 1565 1562 1560 1557 1554 1550 1547 1545 1542 1541 1539 1537 1535 1532 1531 1528 1525 1524 1521 1519
1518 1519 1520 1517 1512 1518 1537 1542 1543 1550 1563 1567 1568 1570 1573 1582 1586 1589 1592 1590 1590 1591 1588 1585 1581 1578 1575 1571 1568 1565 1562 1559 1556 1553 1550 1546 1543 1540 1538 1535 1533 1531 1529 1526 1524 1522 1519 1517 1515
1518 1519 1518 1512 1517 1524 1535 1541 1549 1560 1563 1565 1571 1575 1579 1587 1589 1590 1591 1591 1590 1591 1587 1583 1581 1577 1574 1571 1567 1564 1561 1558 1555 1553 1549 1546 1542 1539 1535 1532 1530 1527 1524 1522 1519 1516 1515 1513 1511
1518 1521 1520 1516 1532 1542 1537 1546 1556 1562 1566 1567 1571 1578 1583 1586 1589 1591 1590 1591 1590 1589 1587 1583 1580 1577 1574 1570 1567 1564 1561 1558 1555 1552 1549 1545 1542 1538 1535 1532 1528 1524 1521 1518 1516 1513 1510 1508 1507
1519 1516 1515 1523 1539 1541 1545 1552 1556 1559 1565 1569 1571 1579 1586 1586 1588 1591 1591 1590 1589 1588 1587 1583 1580 1577 1574 1570 1568 1565 1561 1558 1554 1551 1547 1544 1539 1536 1532 1528 1526 1522 1519 1515 1513 1510 1507 1504 1502
1515 1514 1513 1522 1540 1545 1550 1556 1558 1562 1567 1572 1574 1579 1588 1587 1592 1591 1590 1589 1589 1588 1586 1583 1579 1576 1573 1570 1567 1564 1561 1557 1553 1549 1546 1542 1538 1534 1530 1525 1520 1516 1513 1511 1507 1505 1502 1501 1498
1513 1508 1517 1521 1536 1544 1549 1556 1558 1563 1567 1570 1574 1577 1587 1590 1590 1590 1590 1589 1588 1587 1585 1583 1580 1575 1572 1570 1567 1564 1560 1556 1552 1548 1545 1540 1535 1531 1527 1523 1519 1514 1510 1507 1504 1500 1498 1495 1493
1516 1515 1521 1521 1532 1538 1551 1556 1560 1562 1568 1572 1574 1576 1584 1587 1588 1590 1591 1590 1588 1586 1584 1582 1580 1577 1573 1569 1567 1563 1560 1555 1550 1545 1541 1537 1533 1529 1524 1521 1516 1512 1508 1505 1501 1497 1494 1492 1488
1516 1513 1518 1523 1525 1538 1550 1555 1563 1565 1569 1573 1575 1576 1579 1583 1587 1590 1591 1591 1589 1586 1584 1581 1579 1577 1574 1570 1566 1562 1557 1552 1548 1544 1540 1536 1532 1529 1525 1520 1515 1511 1506 1502 1498 1495 1492 1489 1486
1513 1507 1515 1521 1526 1537 1547 1552 1558 1563 1568 1573 1575 1579 1581 1584 1588 1591 1592 1591 1589 1586 1583 1581 1579 1576 1573 1569 1565 1561 1557 1553 1548 1544 1540 1535 1530 1526 1522 1519 1514 1509 1504 1499 1495 1491 1489 1487 1484
1520 1513 1527 1532 1534 1539 1545 1552 1557 1559 1563 1569 1571 1576 1581 1585 1588 1589 1589 1589 1587 1585 1582 1580 1577 1574 1572 1568 1565 1561 1558 1553 1549 1543 1539 1534 1530 1525 1521 1517 1514 1508 1504 1501 1496 1493 1490 1486 1483
1525 1530 1531 1537 1540 1543 1547 1553 1556 1559 1561 1568 1573 1576 1580 1584 1586 1588 1588 1587 1586 1583 1581 1579 1576 1573 1570 1568 1564 1561 1557 1553 1549 1544 1539 1534 1529 1525 1521 1518 1513 1509 1505 1499 1495 1492 1488 1486 1483
1527 1535 1538 1542 1544 1547 1552 1554 1557 1561 1565 1570 1574 1577 1580 1583 1584 1584 1584 1584 1583 1582 1579 1577 1575 1573 1569 1566 1564 1561 1557 1553 1549 1545 1538 1533 1530 1526 1522 1519 1515 1510 1505 1499 1494 1490 1485 1483 1481
1531 1536 1542 1546 1548 1551 1552 1557 1557 1565 1567 1571 1573 1577 1579 1582 1583 1582 1582 1582 1582 1580 1578 1577 1575 1571 1568 1565 1562 1560 1556 1553 1549 1545 1538 1534 1530 1525 1522 1518 1515 1510 1505 1500 1496 1490 1485 1482 1480
1535 1539 1545 1548 1549 1552 1553 1556 1554 1560 1566 1570 1572 1576 1578 1581 1581 1582 1580 1580 1580 1578 1576 1575 1573 1569 1567 1565 1562 1560 1556 1552 1549 1545 1539 1534 1530 1526 1523 1519 1514 1509 1505 1501 1496 1492 1487 1483 1479
1534 1536 1539 1547 1550 1553 1553 1534 1549 1557 1561 1567 1571 1574 1577 1579 1580 1579 1579 1579 1578 1577 1575 1574 1571 1569 1566 1564 1561 1559 1555 1552 1549 1545 1541 1535 1531 1526 1524 1520 1515 1508 1506 1502 1497 1492 1487 1482 1478
1534 1527 1534 1545 1547 1551 1552 1536 1548 1555 1559 1562 1567 1571 1574 1576 1578 1577 1578 1577 1577 1576 1574 1572 1570 1568 1566 1563 1560 1557 1554 1551 1548 1545 1541 1535 1532 1527 1524 1521 1515 1509 1506 1501 1496 1493 1488 1483 1478
1524 1527 1530 1533 1539 1545 1543 1539 1547 1553 1555 1557 1563 1568 1572 1573 1575 1576 1576 1576 1576 1575 1573 1571 1570 1567 1565 1563 1561 1559 1556 1552 1548 1544 1539 1536 1532 1527 1524 1521 1516 1511 1507 1503 1497 1492 1488 1484 1479
1512 1517 1521 1522 1530 1538 1535 1531 1535 1549 1551 1552 1557 1563 1568 1571 1573 1573 1574 1574 1574 1573 1572 1570 1569 1566 1564 1562 1560 1558 1555 1552 1548 1544 1539 1535 1532 1528 1524 1520 1516 1511 1507 1502 1498 1493 1488 1484 1479
1516 1519 1522 1532 1533 1537 1529 1527 1524 1537 1541 1544 1550 1557 1563 1568 1569 1570 1572 1573 1574 1572 1571 1569 1567 1565 1562 1561 1558 1555 1553 1550 1547 1544 1540 1536 1531 1528 1525 1519 1516 1511 1507 1503 1499 1494 1488 1484 1480
1518 1519 1523 1524 1533 1536 1536 1527 1518 1522 1533 1540 1545 1551 1558 1562 1566 1567 1570 1572 1572 1571 1569 1568 1566 1563 1561 1558 1558 1556 1554 1551 1548 1544 1540 1536 1531 1528 1524 1520 1515 1511 1507 1503 1499 1494 1489 1483 1482
1517 1517 1521 1528 1529 1527 1533 1522 1507 1510 1523 1532 1538 1545 1551 1558 1563 1565 1567 1569 1570 1569 1567 1566 1564 1562 1560 1557 1556 1553 1552 1549 1546 1543 1539 1535 1531 1528 1523 1519 1515 1511 1506 1502 1498 1494 1486 1483 1480
1515 1522 1523 1524 1522 1529 1529 1533 1499 1519 1520 1523 1531 1538 1546 1553 1559 1561 1564 1566 1567 1567 1566 1563 1562 1561 1559 1557 1554 1553 1550 1548 1545 1542 1538 1535 1531 1528 1523 1518 1514 1510 1506 1501 1496 1489 1485 1482 1479
1523 1525 1526 1526 1524 1528 1518 1526 1501 1505 1511 1518 1522 1532 1541 1549 1555 1559 1562 1563 1565 1565 1563 1562 1561 1560 1558 1556 1553 1551 1548 1546 1545 1541 1538 1533 1530 1527 1523 1517 1513 1509 1505 1500 1494 1489 1484 1481 1478
1519 1520 1522 1526 1530 1522 1525 1529 1502 1508 1516 1520 1523 1529 1537 1544 1551 1556 1558 1561 1562 1562 1561 1561 1561 1559 1557 1555 1552 1549 1547 1546 1544 1540 1537 1533 1530 1526 1521 1516 1512 1507 1503 1499 1492 1487 1482 1479 1476
1514 1512 1519 1531 1520 1517 1528 1517 1500 1514 1519 1521 1524 1527 1534 1542 1548 1553 1556 1559 1560 1559 1560 1559 1560 1559 1557 1554 1551 1548 1547 1546 1543 1540 1536 1533 1529 1524 1519 1515 1511 1505 1501 1497 1491 1485 1481 1477 1473
1518 1521 1513 1523 1532 1527 1499 1501 1511 1515 1517 1521 1525 1528 1534 1540 1546 1551 1554 1556 1557 1557 1558 1559 1559 1558 1555 1552 1550 1548 1546 1544 1541 1538 1534 1531 1527 1522 1517 1513 1509 1503 1499 1495 1489 1484 1481 1476 1471
1512 1512 1523 1520 1530 1522 1500 1503 1489 1506 1510 1520 1526 1529 1534 1540 1544 1549 1552 1554 1555 1556 1556 1557 1557 1556 1553 1551 1549 1548 1545 1542 1540 1537 1533 1529 1525 1521 1516 1511 1506 1501 1498 1493 1488 1483 1479 1474 1470
1514 1511 1513 1511 1514 1514 1510 1492 1499 1502 1507 1513 1521 1527 1532 1536 1541 1546 1550 1551 1553 1554 1555 1556 1555 1554 1552 1550 1549 1547 1544 1541 1539 1536 1532 1528 1523 1519 1514 1509 1504 1500 1496 1492 1487 1482 1477 1472 1468
1500 1500 1505 1513 1513 1515 1516 1504 1504 1506 1510 1514 1518 1525 1529 1535 1540 1545 1548 1549 1551 1553 1554 1555 1554 1553 1551 1549 1548 1547 1544 1540 1538 1534 1531 1526 1522 1517 1513 1508 1503 1499 1495 1490 1486 1480 1475 1470 1466